Time,TemperatureF,DewpointF,PressureIn,WindDirection,WindDirectionDegrees,WindSpeedMPH,WindSpeedGustMPH,Humidity,HourlyPrecipIn,Conditions,Clouds,dailyrainin,SoftwareType,DateUTC
2013-03-23 00:00:00,42.0,29.9,30.17,South,174,0.0,0.0,62,0.00,,,0.00,VWS V14.01,2013-03-23 07:00:00,
2013-03-23 00:05:00,42.0,29.9,30.17,South,174,0.0,0.0,62,0.00,,,0.00,VWS V14.01,2013-03-23 07:05:00,
2013-03-23 00:10:00,41.7,30.0,30.17,South,174,0.0,0.0,63,0.00,,,0.00,VWS V14.01,2013-03-23 07:10:00,
2013-03-23 00:15:00,41.4,30.1,30.17,South,174,0.0,0.0,64,0.00,,,0.00,VWS V14.01,2013-03-23 07:15:00,
2013-03-23 00:20:00,41.3,30.4,30.17,South,174,0.0,0.0,65,0.00,,,0.00,VWS V14.01,2013-03-23 07:20:00,
2013-03-23 00:25:00,41.2,30.3,30.17,South,177,0.0,1.0,65,0.00,,,0.00,VWS V14.01,2013-03-23 07:25:00,
2013-03-23 00:30:00,41.1,30.2,30.17,South,177,0.0,0.0,65,0.00,,,0.00,VWS V14.01,2013-03-23 07:30:00,
2013-03-23 00:35:00,41.1,29.9,30.17,South,180,0.0,0.0,64,0.00,,,0.00,VWS V14.01,2013-03-23 07:35:00,
2013-03-23 00:40:00,41.0,30.1,30.17,South,179,0.0,0.0,65,0.00,,,0.00,VWS V14.01,2013-03-23 07:40:00,
2013-03-23 00:45:00,40.9,30.1,30.17,South,181,0.0,0.0,65,0.00,,,0.00,VWS V14.01,2013-03-23 07:45:00,
2013-03-23 00:50:00,40.8,30.3,30.17,South,179,0.0,0.0,66,0.00,,,0.00,VWS V14.01,2013-03-23 07:50:00,
2013-03-23 00:55:00,40.6,30.1,30.17,South,179,0.0,0.0,66,0.00,,,0.00,VWS V14.01,2013-03-23 07:55:00,
2013-03-23 01:00:00,40.3,30.2,30.17,South,181,0.0,0.0,67,0.00,,,0.00,VWS V14.01,2013-03-23 08:00:00,
2013-03-23 01:05:00,40.4,30.0,30.17,South,179,0.0,0.0,66,0.00,,,0.00,VWS V14.01,2013-03-23 08:05:00,
2013-03-23 01:10:00,40.4,30.0,30.17,South,179,0.0,0.0,66,0.00,,,0.00,VWS V14.01,2013-03-23 08:10:00,
2013-03-23 01:15:00,40.3,30.2,30.18,South,180,0.0,0.0,67,0.00,,,0.00,VWS V14.01,2013-03-23 08:15:00,
2013-03-23 01:20:00,40.0,30.3,30.18,South,180,0.0,0.0,68,0.00,,,0.00,VWS V14.01,2013-03-23 08:20:00,
2013-03-23 01:25:00,39.8,29.8,30.18,South,179,0.0,0.0,67,0.00,,,0.00,VWS V14.01,2013-03-23 08:25:00,
2013-03-23 01:30:00,39.7,29.7,30.18,South,180,0.0,0.0,67,0.00,,,0.00,VWS V14.01,2013-03-23 08:30:00,
2013-03-23 01:35:00,39.6,29.6,30.18,South,179,0.0,0.0,67,0.00,,,0.00,VWS V14.01,2013-03-23 08:35:00,
2013-03-23 01:40:00,39.4,29.7,30.18,South,180,0.0,0.0,68,0.00,,,0.00,VWS V14.01,2013-03-23 08:40:00,
2013-03-23 01:45:00,39.1,29.8,30.18,South,179,0.0,0.0,69,0.00,,,0.00,VWS V14.01,2013-03-23 08:45:00,
2013-03-23 01:50:00,38.8,29.5,30.18,South,181,0.0,0.0,69,0.00,,,0.00,VWS V14.01,2013-03-23 08:50:00,
2013-03-23 01:55:00,38.9,28.9,30.18,South,177,0.0,0.0,67,0.00,,,0.00,VWS V14.01,2013-03-23 08:55:00,
2013-03-23 02:00:00,38.9,29.2,30.18,South,177,0.0,0.0,68,0.00,,,0.00,VWS V14.01,2013-03-23 09:00:00,
2013-03-23 02:05:00,38.8,29.2,30.18,South,177,0.0,0.0,68,0.00,,,0.00,VWS V14.01,2013-03-23 09:05:00,
2013-03-23 02:10:00,39.0,29.0,30.18,South,177,0.0,0.0,67,0.00,,,0.00,VWS V14.01,2013-03-23 09:10:00,
2013-03-23 02:15:00,39.2,28.8,30.18,South,177,0.0,0.0,66,0.00,,,0.00,VWS V14.01,2013-03-23 09:15:00,
2013-03-23 02:20:00,39.4,28.6,30.18,SE,145,0.0,1.0,65,0.00,,,0.00,VWS V14.01,2013-03-23 09:20:00,
2013-03-23 02:25:00,39.9,28.7,30.18,SE,145,0.0,1.0,64,0.00,,,0.00,VWS V14.01,2013-03-23 09:25:00,
2013-03-23 02:30:00,40.3,29.1,30.18,SSE,149,0.0,0.0,64,0.00,,,0.00,VWS V14.01,2013-03-23 09:30:00,
2013-03-23 02:35:00,40.2,29.0,30.17,SSE,149,0.0,0.0,64,0.00,,,0.00,VWS V14.01,2013-03-23 09:35:00,
2013-03-23 02:40:00,40.1,28.9,30.17,SSE,149,0.0,1.0,64,0.00,,,0.00,VWS V14.01,2013-03-23 09:40:00,
2013-03-23 02:45:00,40.0,28.8,30.17,SSE,149,0.0,1.0,64,0.00,,,0.00,VWS V14.01,2013-03-23 09:45:00,
2013-03-23 02:50:00,40.3,29.1,30.17,SW,219,0.0,1.0,64,0.00,,,0.00,VWS V14.01,2013-03-23 09:50:00,
2013-03-23 02:55:00,40.5,29.3,30.18,WNW,297,0.0,1.0,64,0.00,,,0.00,VWS V14.01,2013-03-23 09:55:00,
2013-03-23 03:00:00,40.5,29.7,30.17,SE,138,0.0,0.0,65,0.00,,,0.00,VWS V14.01,2013-03-23 10:00:00,
2013-03-23 03:05:00,40.6,30.1,30.18,SSW,211,0.0,1.0,66,0.00,,,0.00,VWS V14.01,2013-03-23 10:05:00,
2013-03-23 03:10:00,40.5,30.4,30.18,SSE,162,0.0,1.0,67,0.00,,,0.00,VWS V14.01,2013-03-23 10:10:00,
2013-03-23 03:15:00,40.3,30.2,30.18,SSE,162,0.0,1.0,67,0.00,,,0.00,VWS V14.01,2013-03-23 10:15:00,
2013-03-23 03:20:00,40.0,29.9,30.17,SSE,162,0.0,1.0,67,0.00,,,0.00,VWS V14.01,2013-03-23 10:20:00,
2013-03-23 03:25:00,39.6,29.9,30.17,SSE,162,0.0,1.0,68,0.00,,,0.00,VWS V14.01,2013-03-23 10:25:00,
2013-03-23 03:29:00,39.4,29.7,30.17,SSE,160,0.0,0.0,68,0.00,,,0.00,VWS V14.01,2013-03-23 10:29:00,
2013-03-23 03:34:00,39.2,29.9,30.17,SSE,160,0.0,0.0,69,0.00,,,0.00,VWS V14.01,2013-03-23 10:34:00,
2013-03-23 03:39:00,39.0,30.1,30.17,SSE,160,0.0,0.0,70,0.00,,,0.00,VWS V14.01,2013-03-23 10:39:00,
2013-03-23 03:44:00,38.8,29.9,30.17,SSE,160,0.0,0.0,70,0.00,,,0.00,VWS V14.01,2013-03-23 10:44:00,
2013-03-23 03:49:00,38.5,29.2,30.17,SSE,160,0.0,0.0,69,0.00,,,0.00,VWS V14.01,2013-03-23 10:49:00,
2013-03-23 03:54:00,38.4,29.5,30.17,SSE,160,0.0,0.0,70,0.00,,,0.00,VWS V14.01,2013-03-23 10:54:00,
2013-03-23 03:59:00,38.4,29.8,30.17,SSE,161,0.0,0.0,71,0.00,,,0.00,VWS V14.01,2013-03-23 10:59:00,
2013-03-23 04:04:00,38.4,29.8,30.17,SSE,160,0.0,0.0,71,0.00,,,0.00,VWS V14.01,2013-03-23 11:04:00,
2013-03-23 04:09:00,38.6,30.0,30.17,SSE,161,0.0,0.0,71,0.00,,,0.00,VWS V14.01,2013-03-23 11:09:00,
2013-03-23 04:14:00,38.4,29.8,30.17,SSE,160,0.0,0.0,71,0.00,,,0.00,VWS V14.01,2013-03-23 11:14:00,
2013-03-23 04:19:00,38.2,29.6,30.17,SSE,161,0.0,0.0,71,0.00,,,0.00,VWS V14.01,2013-03-23 11:19:00,
2013-03-23 04:24:00,37.9,29.4,30.17,SSE,161,0.0,0.0,71,0.00,,,0.00,VWS V14.01,2013-03-23 11:24:00,
2013-03-23 04:29:00,37.7,29.2,30.17,SSE,160,0.0,0.0,71,0.00,,,0.00,VWS V14.01,2013-03-23 11:29:00,
2013-03-23 04:34:00,37.4,29.2,30.17,SSE,160,0.0,0.0,72,0.00,,,0.00,VWS V14.01,2013-03-23 11:34:00,
2013-03-23 04:39:00,37.5,29.3,30.17,SSE,163,0.0,0.0,72,0.00,,,0.00,VWS V14.01,2013-03-23 11:39:00,
2013-03-23 04:44:00,37.5,29.6,30.17,SSE,156,0.0,0.0,73,0.00,,,0.00,VWS V14.01,2013-03-23 11:44:00,
2013-03-23 04:49:00,37.5,29.3,30.17,SSE,157,0.0,0.0,72,0.00,,,0.00,VWS V14.01,2013-03-23 11:49:00,
2013-03-23 04:54:00,37.3,29.1,30.18,SSE,148,0.0,1.0,72,0.00,,,0.00,VWS V14.01,2013-03-23 11:54:00,
2013-03-23 04:59:00,37.4,29.2,30.18,SSE,148,0.0,0.0,72,0.00,,,0.00,VWS V14.01,2013-03-23 11:59:00,
2013-03-23 05:04:00,37.6,29.1,30.17,SSE,148,0.0,0.0,71,0.00,,,0.00,VWS V14.01,2013-03-23 12:04:00,
2013-03-23 05:09:00,37.6,29.4,30.17,SSE,148,0.0,0.0,72,0.00,,,0.00,VWS V14.01,2013-03-23 12:09:00,
2013-03-23 05:14:00,37.3,28.8,30.17,SSE,148,0.0,0.0,71,0.00,,,0.00,VWS V14.01,2013-03-23 12:14:00,
2013-03-23 05:19:00,37.0,28.5,30.18,SSE,148,0.0,0.0,71,0.00,,,0.00,VWS V14.01,2013-03-23 12:19:00,
2013-03-23 05:24:00,37.1,28.2,30.18,SSE,148,0.0,0.0,70,0.00,,,0.00,VWS V14.01,2013-03-23 12:24:00,
2013-03-23 05:29:00,37.4,28.2,30.18,SSE,148,0.0,0.0,69,0.00,,,0.00,VWS V14.01,2013-03-23 12:29:00,
2013-03-23 05:34:00,37.5,28.3,30.18,SSE,148,0.0,0.0,69,0.00,,,0.00,VWS V14.01,2013-03-23 12:34:00,
2013-03-23 05:39:00,37.5,28.3,30.18,SSE,148,0.0,0.0,69,0.00,,,0.00,VWS V14.01,2013-03-23 12:39:00,
2013-03-23 05:44:00,37.6,28.4,30.18,SSE,148,0.0,0.0,69,0.00,,,0.00,VWS V14.01,2013-03-23 12:44:00,
2013-03-23 05:49:00,37.7,28.1,30.18,SSE,148,0.0,0.0,68,0.00,,,0.00,VWS V14.01,2013-03-23 12:49:00,
2013-03-23 05:54:00,37.6,28.4,30.18,SSE,148,0.0,0.0,69,0.00,,,0.00,VWS V14.01,2013-03-23 12:54:00,
2013-03-23 05:59:00,37.5,27.9,30.18,SSE,148,0.0,0.0,68,0.00,,,0.00,VWS V14.01,2013-03-23 12:59:00,
2013-03-23 06:04:00,37.4,27.8,30.18,SSE,148,0.0,0.0,68,0.00,,,0.00,VWS V14.01,2013-03-23 13:04:00,
2013-03-23 06:09:00,37.2,27.6,30.18,SSE,148,0.0,0.0,68,0.00,,,0.00,VWS V14.01,2013-03-23 13:09:00,
2013-03-23 06:14:00,37.2,27.3,30.18,SSE,148,0.0,0.0,67,0.00,,,0.00,VWS V14.01,2013-03-23 13:14:00,
2013-03-23 06:19:00,37.2,27.3,30.19,SSE,148,0.0,0.0,67,0.00,,,0.00,VWS V14.01,2013-03-23 13:19:00,
2013-03-23 06:24:00,37.6,27.3,30.19,SSW,197,0.0,0.0,66,0.00,,,0.00,VWS V14.01,2013-03-23 13:24:00,
2013-03-23 06:29:00,38.4,27.7,30.19,East,101,0.0,1.0,65,0.00,,,0.00,VWS V14.01,2013-03-23 13:29:00,
2013-03-23 06:34:00,38.7,28.0,30.19,East,100,0.0,1.0,65,0.00,,,0.00,VWS V14.01,2013-03-23 13:34:00,
2013-03-23 06:39:00,39.0,27.1,30.19,East,100,0.0,1.0,62,0.00,,,0.00,VWS V14.01,2013-03-23 13:39:00,
2013-03-23 06:44:00,39.1,26.8,30.19,East,100,0.0,1.0,61,0.00,,,0.00,VWS V14.01,2013-03-23 13:44:00,
2013-03-23 06:49:00,39.3,27.0,30.20,SSE,152,0.0,1.0,61,0.00,,,0.00,VWS V14.01,2013-03-23 13:49:00,
2013-03-23 06:54:00,39.5,27.2,30.20,SSE,152,0.0,1.0,61,0.00,,,0.00,VWS V14.01,2013-03-23 13:54:00,
2013-03-23 06:59:00,39.5,27.6,30.19,SSE,152,0.0,0.0,62,0.00,,,0.00,VWS V14.01,2013-03-23 13:59:00,
2013-03-23 07:04:00,39.5,27.2,30.19,SSE,152,0.0,0.0,61,0.00,,,0.00,VWS V14.01,2013-03-23 14:04:00,
2013-03-23 07:09:00,39.7,27.4,30.19,SSE,152,0.0,0.0,61,0.00,,,0.00,VWS V14.01,2013-03-23 14:09:00,
2013-03-23 07:14:00,39.8,27.1,30.19,SSE,153,0.0,0.0,60,0.00,,,0.00,VWS V14.01,2013-03-23 14:14:00,
2013-03-23 07:19:00,40.3,27.1,30.20,SSE,153,0.0,0.0,59,0.00,,,0.00,VWS V14.01,2013-03-23 14:19:00,
2013-03-23 07:24:00,40.8,27.2,30.20,SSE,153,0.0,0.0,58,0.00,,,0.00,VWS V14.01,2013-03-23 14:24:00,
2013-03-23 07:29:00,41.6,26.6,30.21,SSE,152,0.0,0.0,55,0.00,,,0.00,VWS V14.01,2013-03-23 14:29:00,
2013-03-23 07:34:00,42.5,26.1,30.21,SSE,152,0.0,0.0,52,0.00,,,0.00,VWS V14.01,2013-03-23 14:34:00,
2013-03-23 07:39:00,43.3,26.4,30.21,ESE,119,0.0,2.0,51,0.00,,,0.00,VWS V14.01,2013-03-23 14:39:00,
2013-03-23 07:44:00,43.7,26.3,30.22,ESE,120,0.0,2.0,50,0.00,,,0.00,VWS V14.01,2013-03-23 14:44:00,
2013-03-23 07:49:00,44.3,26.4,30.22,ENE,68,0.0,2.0,49,0.00,,,0.00,VWS V14.01,2013-03-23 14:49:00,
2013-03-23 07:54:00,44.7,26.2,30.22,SE,124,0.0,2.0,48,0.00,,,0.00,VWS V14.01,2013-03-23 14:54:00,
2013-03-23 07:59:00,44.9,25.9,30.22,ENE,68,0.0,1.0,47,0.00,,,0.00,VWS V14.01,2013-03-23 14:59:00,
2013-03-23 08:04:00,45.5,25.9,30.22,ENE,72,0.0,3.0,46,0.00,,,0.00,VWS V14.01,2013-03-23 15:04:00,
2013-03-23 08:09:00,45.7,25.6,30.22,ENE,77,0.0,3.0,45,0.00,,,0.00,VWS V14.01,2013-03-23 15:09:00,
2013-03-23 08:14:00,46.1,25.4,30.23,WNW,287,0.0,3.0,44,0.00,,,0.00,VWS V14.01,2013-03-23 15:14:00,
2013-03-23 08:19:00,46.8,24.9,30.23,ENE,60,1.0,3.0,42,0.00,,,0.00,VWS V14.01,2013-03-23 15:19:00,
2013-03-23 08:24:00,47.6,25.7,30.23,East,90,0.0,3.0,42,0.00,,,0.00,VWS V14.01,2013-03-23 15:24:00,
2013-03-23 08:29:00,48.2,25.0,30.23,East,82,1.0,3.0,40,0.00,,,0.00,VWS V14.01,2013-03-23 15:29:00,
2013-03-23 08:34:00,49.0,25.1,30.23,East,101,0.0,5.0,39,0.00,,,0.00,VWS V14.01,2013-03-23 15:34:00,
2013-03-23 08:39:00,49.6,25.7,30.23,East,81,0.0,5.0,39,0.00,,,0.00,VWS V14.01,2013-03-23 15:39:00,
2013-03-23 08:44:00,49.7,27.0,30.23,ENE,58,1.0,5.0,41,0.00,,,0.00,VWS V14.01,2013-03-23 15:44:00,
2013-03-23 08:49:00,49.9,26.0,30.23,ENE,71,1.0,5.0,39,0.00,,,0.00,VWS V14.01,2013-03-23 15:49:00,
2013-03-23 08:54:00,50.3,25.0,30.23,NE,43,0.0,5.0,37,0.00,,,0.00,VWS V14.01,2013-03-23 15:54:00,
2013-03-23 08:59:00,51.2,25.8,30.23,NE,43,1.0,2.0,37,0.00,,,0.00,VWS V14.01,2013-03-23 15:59:00,
2013-03-23 09:04:00,52.1,25.3,30.23,ENE,73,0.0,3.0,35,0.00,,,0.00,VWS V14.01,2013-03-23 16:04:00,
2013-03-23 09:09:00,52.9,25.3,30.23,ENE,60,1.0,3.0,34,0.00,,,0.00,VWS V14.01,2013-03-23 16:09:00,
2013-03-23 09:14:00,53.7,25.3,30.23,ENE,63,0.0,3.0,33,0.00,,,0.00,VWS V14.01,2013-03-23 16:14:00,
2013-03-23 09:19:00,54.9,24.9,30.23,NE,49,0.0,3.0,31,0.00,,,0.00,VWS V14.01,2013-03-23 16:19:00,
2013-03-23 09:24:00,56.0,24.2,30.23,SSW,200,0.0,3.0,29,0.00,,,0.00,VWS V14.01,2013-03-23 16:24:00,
2013-03-23 09:29:00,56.7,24.8,30.23,ENE,63,0.0,2.0,29,0.00,,,0.00,VWS V14.01,2013-03-23 16:29:00,
2013-03-23 09:34:00,57.0,24.2,30.23,ENE,75,0.0,2.0,28,0.00,,,0.00,VWS V14.01,2013-03-23 16:34:00,
2013-03-23 09:39:00,57.4,24.6,30.23,NE,37,1.0,2.0,28,0.00,,,0.00,VWS V14.01,2013-03-23 16:39:00,
2013-03-23 09:44:00,57.6,23.9,30.23,ESE,103,0.0,2.0,27,0.00,,,0.00,VWS V14.01,2013-03-23 16:44:00,
2013-03-23 09:49:00,58.1,23.4,30.23,NNE,19,0.0,2.0,26,0.00,,,0.00,VWS V14.01,2013-03-23 16:49:00,
2013-03-23 09:54:00,58.7,24.8,30.23,ENE,72,1.0,2.0,27,0.00,,,0.00,VWS V14.01,2013-03-23 16:54:00,
2013-03-23 09:59:00,58.7,23.9,30.23,ENE,61,2.0,2.0,26,0.00,,,0.00,VWS V14.01,2013-03-23 16:59:00,
2013-03-23 10:04:00,59.1,25.2,30.23,ENE,65,1.0,2.0,27,0.00,,,0.00,VWS V14.01,2013-03-23 17:04:00,
2013-03-23 10:09:00,59.1,24.3,30.23,NE,54,1.0,2.0,26,0.00,,,0.00,VWS V14.01,2013-03-23 17:09:00,
2013-03-23 10:14:00,59.8,24.9,30.22,ENE,64,2.0,2.0,26,0.00,,,0.00,VWS V14.01,2013-03-23 17:14:00,
2013-03-23 10:19:00,60.4,23.5,30.22,ENE,59,1.0,2.0,24,0.00,,,0.00,VWS V14.01,2013-03-23 17:19:00,
2013-03-23 10:24:00,60.1,23.2,30.22,ENE,77,1.0,4.0,24,0.00,,,0.00,VWS V14.01,2013-03-23 17:24:00,
2013-03-23 10:29:00,60.3,22.4,30.22,West,266,0.0,1.0,23,0.00,,,0.00,VWS V14.01,2013-03-23 17:29:00,
2013-03-23 10:34:00,59.9,22.0,30.23,West,277,0.0,6.0,23,0.00,,,0.00,VWS V14.01,2013-03-23 17:34:00,
2013-03-23 10:39:00,59.8,22.0,30.23,East,101,1.0,6.0,23,0.00,,,0.00,VWS V14.01,2013-03-23 17:39:00,
2013-03-23 10:44:00,60.2,23.3,30.23,ESE,118,0.0,6.0,24,0.00,,,0.00,VWS V14.01,2013-03-23 17:44:00,
2013-03-23 10:49:00,60.3,21.3,30.23,West,269,1.0,6.0,22,0.00,,,0.00,VWS V14.01,2013-03-23 17:49:00,
2013-03-23 10:54:00,61.0,24.0,30.23,NW,304,1.0,6.0,24,0.00,,,0.00,VWS V14.01,2013-03-23 17:54:00,
2013-03-23 10:59:00,61.2,23.1,30.23,ENE,65,3.0,3.0,23,0.00,,,0.00,VWS V14.01,2013-03-23 17:59:00,
2013-03-23 11:04:00,61.0,21.9,30.23,East,79,1.0,3.0,22,0.00,,,0.00,VWS V14.01,2013-03-23 18:04:00,
2013-03-23 11:09:00,61.2,24.1,30.23,North,9,0.0,6.0,24,0.00,,,0.00,VWS V14.01,2013-03-23 18:09:00,
2013-03-23 11:14:00,61.6,22.4,30.23,NNE,27,2.0,6.0,22,0.00,,,0.00,VWS V14.01,2013-03-23 18:14:00,
2013-03-23 11:19:00,61.1,24.1,30.23,ESE,103,0.0,6.0,24,0.00,,,0.00,VWS V14.01,2013-03-23 18:19:00,
2013-03-23 11:24:00,61.3,24.2,30.23,ENE,71,2.0,6.0,24,0.00,,,0.00,VWS V14.01,2013-03-23 18:24:00,
2013-03-23 11:29:00,61.8,26.6,30.23,NNE,15,2.0,2.0,26,0.00,,,0.00,VWS V14.01,2013-03-23 18:29:00,
2013-03-23 11:34:00,61.8,25.6,30.23,East,81,1.0,5.0,25,0.00,,,0.00,VWS V14.01,2013-03-23 18:34:00,
2013-03-23 11:39:00,61.4,24.3,30.22,NE,46,2.0,5.0,24,0.00,,,0.00,VWS V14.01,2013-03-23 18:39:00,
2013-03-23 11:44:00,61.8,25.6,30.22,NE,56,3.0,5.0,25,0.00,,,0.00,VWS V14.01,2013-03-23 18:44:00,
2013-03-23 11:49:00,61.7,27.4,30.22,SW,231,0.0,6.0,27,0.00,,,0.00,VWS V14.01,2013-03-23 18:49:00,
2013-03-23 11:54:00,62.5,29.0,30.22,NE,46,3.0,6.0,28,0.00,,,0.00,VWS V14.01,2013-03-23 18:54:00,
2013-03-23 11:59:00,63.2,27.8,30.21,East,90,2.0,3.0,26,0.00,,,0.00,VWS V14.01,2013-03-23 18:59:00,
2013-03-23 12:04:00,63.2,26.8,30.21,ENE,72,1.0,3.0,25,0.00,,,0.00,VWS V14.01,2013-03-23 19:04:00,
2013-03-23 12:09:00,63.7,27.2,30.21,WSW,256,0.0,3.0,25,0.00,,,0.00,VWS V14.01,2013-03-23 19:09:00,
2013-03-23 12:14:00,63.7,26.3,30.20,South,183,3.0,4.0,24,0.00,,,0.00,VWS V14.01,2013-03-23 19:14:00,
2013-03-23 12:19:00,63.4,26.0,30.20,ENE,67,2.0,4.0,24,0.00,,,0.00,VWS V14.01,2013-03-23 19:19:00,
2013-03-23 12:24:00,63.7,27.2,30.20,NNW,340,0.0,4.0,25,0.00,,,0.00,VWS V14.01,2013-03-23 19:24:00,
2013-03-23 12:29:00,64.0,24.4,30.20,ENE,68,1.0,5.0,22,0.00,,,0.00,VWS V14.01,2013-03-23 19:29:00,
2013-03-23 12:34:00,64.1,28.5,30.20,ENE,57,4.0,5.0,26,0.00,,,0.00,VWS V14.01,2013-03-23 19:34:00,
2013-03-23 12:39:00,64.4,26.9,30.20,NNE,22,0.0,5.0,24,0.00,,,0.00,VWS V14.01,2013-03-23 19:39:00,
2013-03-23 12:44:00,64.3,25.7,30.20,ENE,60,2.0,5.0,23,0.00,,,0.00,VWS V14.01,2013-03-23 19:44:00,
2013-03-23 12:49:00,64.3,24.7,30.20,East,101,1.0,5.0,22,0.00,,,0.00,VWS V14.01,2013-03-23 19:49:00,
2013-03-23 12:54:00,63.9,25.4,30.20,ENE,57,1.0,5.0,23,0.00,,,0.00,VWS V14.01,2013-03-23 19:54:00,
2013-03-23 12:59:00,63.6,27.2,30.20,NW,317,1.0,2.0,25,0.00,,,0.00,VWS V14.01,2013-03-23 19:59:00,
2013-03-23 13:04:00,64.3,26.8,30.20,North,358,0.0,4.0,24,0.00,,,0.00,VWS V14.01,2013-03-23 20:04:00,
2013-03-23 13:09:00,64.7,26.1,30.19,NNW,328,1.0,4.0,23,0.00,,,0.00,VWS V14.01,2013-03-23 20:09:00,
2013-03-23 13:14:00,65.8,28.0,30.19,NW,321,1.0,4.0,24,0.00,,,0.00,VWS V14.01,2013-03-23 20:14:00,
2013-03-23 13:19:00,66.3,26.4,30.19,East,96,1.0,4.0,22,0.00,,,0.00,VWS V14.01,2013-03-23 20:19:00,
2013-03-23 13:24:00,66.3,26.4,30.19,NE,49,0.0,4.0,22,0.00,,,0.00,VWS V14.01,2013-03-23 20:24:00,
2013-03-23 13:29:00,66.2,28.4,30.18,NE,53,3.0,4.0,24,0.00,,,0.00,VWS V14.01,2013-03-23 20:29:00,
2013-03-23 13:34:00,66.3,27.4,30.18,NNE,26,0.0,4.0,23,0.00,,,0.00,VWS V14.01,2013-03-23 20:34:00,
2013-03-23 13:39:00,66.5,27.6,30.18,NNW,330,1.0,4.0,23,0.00,,,0.00,VWS V14.01,2013-03-23 20:39:00,
2013-03-23 13:44:00,67.3,29.3,30.18,West,264,1.0,4.0,24,0.00,,,0.00,VWS V14.01,2013-03-23 20:44:00,
2013-03-23 13:49:00,67.5,27.4,30.18,ENE,63,0.0,4.0,22,0.00,,,0.00,VWS V14.01,2013-03-23 20:49:00,
2013-03-23 13:54:00,68.0,27.8,30.17,SSW,211,0.0,4.0,22,0.00,,,0.00,VWS V14.01,2013-03-23 20:54:00,
2013-03-23 13:59:00,68.9,29.6,30.17,NNE,25,2.0,2.0,23,0.00,,,0.00,VWS V14.01,2013-03-23 20:59:00,
2013-03-23 14:04:00,69.0,28.6,30.17,NW,324,2.0,4.0,22,0.00,,,0.00,VWS V14.01,2013-03-23 21:04:00,
2013-03-23 14:09:00,69.0,29.7,30.16,SE,134,0.0,4.0,23,0.00,,,0.00,VWS V14.01,2013-03-23 21:09:00,
2013-03-23 14:14:00,69.5,30.1,30.16,NE,50,0.0,4.0,23,0.00,,,0.00,VWS V14.01,2013-03-23 21:14:00,
2013-03-23 14:19:00,69.0,29.7,30.16,SSE,159,3.0,4.0,23,0.00,,,0.00,VWS V14.01,2013-03-23 21:19:00,
2013-03-23 14:24:00,69.2,27.6,30.16,NE,39,1.0,4.0,21,0.00,,,0.00,VWS V14.01,2013-03-23 21:24:00,
2013-03-23 14:29:00,69.3,28.9,30.16,West,276,1.0,3.0,22,0.00,,,0.00,VWS V14.01,2013-03-23 21:29:00,
2013-03-23 14:34:00,70.0,29.4,30.16,SSW,207,0.0,3.0,22,0.00,,,0.00,VWS V14.01,2013-03-23 21:34:00,
2013-03-23 14:39:00,69.9,28.2,30.15,ENE,67,1.0,5.0,21,0.00,,,0.00,VWS V14.01,2013-03-23 21:39:00,
2013-03-23 14:44:00,69.8,28.1,30.15,NW,305,3.0,5.0,21,0.00,,,0.00,VWS V14.01,2013-03-23 21:44:00,
2013-03-23 14:49:00,69.8,29.3,30.15,East,79,1.0,5.0,22,0.00,,,0.00,VWS V14.01,2013-03-23 21:49:00,
2013-03-23 14:54:00,70.3,28.5,30.15,West,273,0.0,5.0,21,0.00,,,0.00,VWS V14.01,2013-03-23 21:54:00,
2013-03-23 14:59:00,70.6,31.0,30.15,NNW,337,1.0,1.0,23,0.00,,,0.00,VWS V14.01,2013-03-23 21:59:00,
2013-03-23 15:04:00,70.2,26.0,30.15,WNW,287,0.0,2.0,19,0.00,,,0.00,VWS V14.01,2013-03-23 22:04:00,
2013-03-23 15:09:00,70.1,24.7,30.15,NNW,333,1.0,2.0,18,0.00,,,0.00,VWS V14.01,2013-03-23 22:09:00,
2013-03-23 15:14:00,69.9,23.1,30.14,SE,134,0.0,2.0,17,0.00,,,0.00,VWS V14.01,2013-03-23 22:14:00,
2013-03-23 15:19:00,70.5,26.3,30.14,ENE,65,1.0,2.0,19,0.00,,,0.00,VWS V14.01,2013-03-23 22:19:00,
2013-03-23 15:24:00,70.4,24.9,30.14,East,95,0.0,3.0,18,0.00,,,0.00,VWS V14.01,2013-03-23 22:24:00,
2013-03-23 15:29:00,70.6,25.1,30.13,NW,309,0.0,1.0,18,0.00,,,0.00,VWS V14.01,2013-03-23 22:29:00,
2013-03-23 15:34:00,71.0,25.4,30.13,NW,322,0.0,2.0,18,0.00,,,0.00,VWS V14.01,2013-03-23 22:34:00,
2013-03-23 15:39:00,70.8,22.4,30.13,WNW,287,0.0,3.0,16,0.00,,,0.00,VWS V14.01,2013-03-23 22:39:00,
2013-03-23 15:44:00,70.6,23.7,30.13,ESE,114,1.0,4.0,17,0.00,,,0.00,VWS V14.01,2013-03-23 22:44:00,
2013-03-23 15:49:00,70.8,25.2,30.13,NW,309,2.0,5.0,18,0.00,,,0.00,VWS V14.01,2013-03-23 22:49:00,
2013-03-23 15:54:00,70.7,26.5,30.13,NW,305,1.0,5.0,19,0.00,,,0.00,VWS V14.01,2013-03-23 22:54:00,
2013-03-23 15:59:00,70.3,24.8,30.13,North,5,0.0,2.0,18,0.00,,,0.00,VWS V14.01,2013-03-23 22:59:00,
2013-03-23 16:04:00,70.7,25.1,30.13,West,279,1.0,2.0,18,0.00,,,0.00,VWS V14.01,2013-03-23 23:04:00,
2013-03-23 16:09:00,70.9,24.0,30.12,NE,48,1.0,4.0,17,0.00,,,0.00,VWS V14.01,2013-03-23 23:09:00,
2013-03-23 16:14:00,69.9,23.1,30.12,WSW,242,3.0,4.0,17,0.00,,,0.00,VWS V14.01,2013-03-23 23:14:00,
2013-03-23 16:19:00,70.1,23.3,30.12,WNW,290,2.0,5.0,17,0.00,,,0.00,VWS V14.01,2013-03-23 23:19:00,
2013-03-23 16:24:00,70.4,26.2,30.12,West,278,0.0,5.0,19,0.00,,,0.00,VWS V14.01,2013-03-23 23:24:00,
2013-03-23 16:29:00,70.8,27.8,30.12,NNW,328,1.0,3.0,20,0.00,,,0.00,VWS V14.01,2013-03-23 23:29:00,
2013-03-23 16:34:00,70.8,25.2,30.12,SW,228,1.0,4.0,18,0.00,,,0.00,VWS V14.01,2013-03-23 23:34:00,
2013-03-23 16:39:00,70.9,26.6,30.12,NW,307,1.0,4.0,19,0.00,,,0.00,VWS V14.01,2013-03-23 23:39:00,
2013-03-23 16:44:00,70.7,25.1,30.12,East,84,2.0,4.0,18,0.00,,,0.00,VWS V14.01,2013-03-23 23:44:00,
2013-03-23 16:49:00,70.6,26.4,30.12,NNW,337,1.0,4.0,19,0.00,,,0.00,VWS V14.01,2013-03-23 23:49:00,
2013-03-23 16:54:00,70.9,26.6,30.12,North,349,2.0,4.0,19,0.00,,,0.00,VWS V14.01,2013-03-23 23:54:00,
2013-03-23 16:59:00,70.9,26.6,30.12,NE,43,0.0,2.0,19,0.00,,,0.00,VWS V14.01,2013-03-23 23:59:00,
2013-03-23 17:04:00,70.7,27.7,30.12,ENE,59,0.0,2.0,20,0.00,,,0.00,VWS V14.01,2013-03-24 00:04:00,
2013-03-23 17:09:00,70.8,25.2,30.12,WNW,295,0.0,3.0,18,0.00,,,0.00,VWS V14.01,2013-03-24 00:09:00,
2013-03-23 17:14:00,70.6,25.1,30.12,North,11,0.0,3.0,18,0.00,,,0.00,VWS V14.01,2013-03-24 00:14:00,
2013-03-23 17:19:00,70.8,25.2,30.12,WNW,290,0.0,3.0,18,0.00,,,0.00,VWS V14.01,2013-03-24 00:19:00,
2013-03-23 17:24:00,70.5,23.6,30.11,WSW,243,1.0,3.0,17,0.00,,,0.00,VWS V14.01,2013-03-24 00:24:00,
2013-03-23 17:29:00,70.7,26.5,30.11,West,264,0.0,0.0,19,0.00,,,0.00,VWS V14.01,2013-03-24 00:29:00,
2013-03-23 17:34:00,71.0,26.7,30.11,North,357,1.0,2.0,19,0.00,,,0.00,VWS V14.01,2013-03-24 00:34:00,
2013-03-23 17:39:00,70.9,26.6,30.11,NNE,15,1.0,2.0,19,0.00,,,0.00,VWS V14.01,2013-03-24 00:39:00,
2013-03-23 17:44:00,70.5,26.3,30.11,WNW,294,1.0,2.0,19,0.00,,,0.00,VWS V14.01,2013-03-24 00:44:00,
2013-03-23 17:49:00,70.4,27.5,30.12,East,85,1.0,4.0,20,0.00,,,0.00,VWS V14.01,2013-03-24 00:49:00,
2013-03-23 17:54:00,70.3,26.1,30.11,NNW,334,1.0,4.0,19,0.00,,,0.00,VWS V14.01,2013-03-24 00:54:00,
2013-03-23 17:59:00,70.6,25.1,30.11,SW,233,1.0,1.0,18,0.00,,,0.00,VWS V14.01,2013-03-24 00:59:00,
2013-03-23 18:04:00,70.3,26.1,30.11,ENE,71,1.0,2.0,19,0.00,,,0.00,VWS V14.01,2013-03-24 01:04:00,
2013-03-23 18:09:00,69.9,27.0,30.11,WNW,283,0.0,2.0,20,0.00,,,0.00,VWS V14.01,2013-03-24 01:09:00,
2013-03-23 18:14:00,70.0,28.3,30.11,ENE,74,1.0,2.0,21,0.00,,,0.00,VWS V14.01,2013-03-24 01:14:00,
2013-03-23 18:19:00,69.7,29.2,30.11,NNE,29,0.0,2.0,22,0.00,,,0.00,VWS V14.01,2013-03-24 01:19:00,
2013-03-23 18:24:00,69.8,28.1,30.11,WNW,300,1.0,2.0,21,0.00,,,0.00,VWS V14.01,2013-03-24 01:24:00,
2013-03-23 18:29:00,69.3,29.9,30.11,East,82,0.0,0.0,23,0.00,,,0.00,VWS V14.01,2013-03-24 01:29:00,
2013-03-23 18:34:00,69.0,28.6,30.11,West,281,0.0,1.0,22,0.00,,,0.00,VWS V14.01,2013-03-24 01:34:00,
2013-03-23 18:39:00,68.4,29.2,30.11,West,278,0.0,1.0,23,0.00,,,0.00,VWS V14.01,2013-03-24 01:39:00,
2013-03-23 18:44:00,67.7,29.6,30.12,WNW,301,0.0,1.0,24,0.00,,,0.00,VWS V14.01,2013-03-24 01:44:00,
2013-03-23 18:49:00,66.8,29.9,30.12,West,273,0.0,4.0,25,0.00,,,0.00,VWS V14.01,2013-03-24 01:49:00,
2013-03-23 18:54:00,66.0,30.2,30.12,SW,228,0.0,4.0,26,0.00,,,0.00,VWS V14.01,2013-03-24 01:54:00,
2013-03-23 18:59:00,65.4,32.3,30.12,West,281,0.0,0.0,29,0.00,,,0.00,VWS V14.01,2013-03-24 01:59:00,
2013-03-23 19:04:00,64.7,32.6,30.12,North,4,0.0,2.0,30,0.00,,,0.00,VWS V14.01,2013-03-24 02:04:00,
2013-03-23 19:09:00,63.9,34.3,30.12,North,5,0.0,2.0,33,0.00,,,0.00,VWS V14.01,2013-03-24 02:09:00,
2013-03-23 19:14:00,63.1,34.3,30.12,NNW,342,0.0,2.0,34,0.00,,,0.00,VWS V14.01,2013-03-24 02:14:00,
2013-03-23 19:19:00,62.5,35.2,30.12,WSW,239,0.0,2.0,36,0.00,,,0.00,VWS V14.01,2013-03-24 02:19:00,
2013-03-23 19:24:00,62.1,35.5,30.13,WSW,253,0.0,2.0,37,0.00,,,0.00,VWS V14.01,2013-03-24 02:24:00,
2013-03-23 19:29:00,61.7,35.2,30.13,West,274,0.0,0.0,37,0.00,,,0.00,VWS V14.01,2013-03-24 02:29:00,
2013-03-23 19:34:00,61.3,34.8,30.13,WSW,246,0.0,1.0,37,0.00,,,0.00,VWS V14.01,2013-03-24 02:34:00,
2013-03-23 19:39:00,60.9,35.8,30.13,WSW,244,0.0,1.0,39,0.00,,,0.00,VWS V14.01,2013-03-24 02:39:00,
2013-03-23 19:44:00,60.5,35.4,30.13,NE,37,0.0,3.0,39,0.00,,,0.00,VWS V14.01,2013-03-24 02:44:00,
2013-03-23 19:49:00,60.1,35.1,30.13,WNW,294,0.0,3.0,39,0.00,,,0.00,VWS V14.01,2013-03-24 02:49:00,
2013-03-23 19:54:00,59.5,35.2,30.13,WNW,294,0.0,3.0,40,0.00,,,0.00,VWS V14.01,2013-03-24 02:54:00,
2013-03-23 19:59:00,58.8,35.8,30.13,West,259,0.0,1.0,42,0.00,,,0.00,VWS V14.01,2013-03-24 02:59:00,
2013-03-23 20:04:00,58.3,35.3,30.13,WSW,246,0.0,1.0,42,0.00,,,0.00,VWS V14.01,2013-03-24 03:04:00,
2013-03-23 20:09:00,57.9,35.0,30.13,WSW,245,0.0,1.0,42,0.00,,,0.00,VWS V14.01,2013-03-24 03:09:00,
2013-03-23 20:14:00,57.6,35.3,30.13,WSW,246,0.0,1.0,43,0.00,,,0.00,VWS V14.01,2013-03-24 03:14:00,
2013-03-23 20:19:00,57.1,34.8,30.13,WSW,246,0.0,1.0,43,0.00,,,0.00,VWS V14.01,2013-03-24 03:19:00,
2013-03-23 20:24:00,56.5,34.9,30.13,WSW,246,0.0,1.0,44,0.00,,,0.00,VWS V14.01,2013-03-24 03:24:00,
2013-03-23 20:29:00,55.9,36.0,30.13,WSW,245,0.0,0.0,47,0.00,,,0.00,VWS V14.01,2013-03-24 03:29:00,
2013-03-23 20:34:00,55.3,36.0,30.14,WSW,246,0.0,0.0,48,0.00,,,0.00,VWS V14.01,2013-03-24 03:34:00,
2013-03-23 20:39:00,54.8,36.0,30.14,WSW,246,0.0,0.0,49,0.00,,,0.00,VWS V14.01,2013-03-24 03:39:00,
2013-03-23 20:44:00,54.2,37.0,30.14,WSW,245,0.0,0.0,52,0.00,,,0.00,VWS V14.01,2013-03-24 03:44:00,
2013-03-23 20:49:00,53.6,37.4,30.14,WSW,246,0.0,0.0,54,0.00,,,0.00,VWS V14.01,2013-03-24 03:49:00,
2013-03-23 20:54:00,53.2,37.0,30.14,WSW,244,0.0,0.0,54,0.00,,,0.00,VWS V14.01,2013-03-24 03:54:00,
2013-03-23 20:59:00,52.8,36.6,30.15,WSW,245,0.0,0.0,54,0.00,,,0.00,VWS V14.01,2013-03-24 03:59:00,
2013-03-23 21:00:00,52.7,36.5,30.14,WSW,245,0.0,0.0,54,0.00,,,0.00,VWS V14.01,2013-03-24 04:00:00,
2013-03-23 21:05:00,52.1,36.4,30.15,WSW,245,0.0,0.0,55,0.00,,,0.00,VWS V14.01,2013-03-24 04:05:00,
2013-03-23 21:10:00,51.6,36.9,30.15,WSW,245,0.0,0.0,57,0.00,,,0.00,VWS V14.01,2013-03-24 04:10:00,
2013-03-23 21:15:00,51.4,36.7,30.15,WSW,245,0.0,0.0,57,0.00,,,0.00,VWS V14.01,2013-03-24 04:15:00,
2013-03-23 21:20:00,51.2,36.5,30.15,WSW,245,0.0,0.0,57,0.00,,,0.00,VWS V14.01,2013-03-24 04:20:00,
2013-03-23 21:25:00,51.1,36.0,30.15,WSW,244,0.0,0.0,56,0.00,,,0.00,VWS V14.01,2013-03-24 04:25:00,
2013-03-23 21:30:00,51.1,36.0,30.15,WSW,244,0.0,0.0,56,0.00,,,0.00,VWS V14.01,2013-03-24 04:30:00,
2013-03-23 21:35:00,50.9,36.2,30.15,SSE,162,0.0,1.0,57,0.00,,,0.00,VWS V14.01,2013-03-24 04:35:00,
2013-03-23 21:40:00,50.6,35.9,30.15,SSE,162,0.0,1.0,57,0.00,,,0.00,VWS V14.01,2013-03-24 04:40:00,
2013-03-23 21:45:00,50.2,36.0,30.15,SSE,160,0.0,1.0,58,0.00,,,0.00,VWS V14.01,2013-03-24 04:45:00,
2013-03-23 21:50:00,50.2,35.6,30.15,SE,134,0.0,2.0,57,0.00,,,0.00,VWS V14.01,2013-03-24 04:50:00,
2013-03-23 21:55:00,50.1,35.9,30.15,SE,134,0.0,2.0,58,0.00,,,0.00,VWS V14.01,2013-03-24 04:55:00,
2013-03-23 22:00:00,49.8,35.6,30.15,SE,134,0.0,0.0,58,0.00,,,0.00,VWS V14.01,2013-03-24 05:00:00,
2013-03-23 22:05:00,49.3,35.2,30.15,SE,134,0.0,0.0,58,0.00,,,0.00,VWS V14.01,2013-03-24 05:05:00,
2013-03-23 22:10:00,48.9,35.6,30.15,SE,134,0.0,0.0,60,0.00,,,0.00,VWS V14.01,2013-03-24 05:10:00,
2013-03-23 22:15:00,48.5,35.7,30.16,SE,134,0.0,0.0,61,0.00,,,0.00,VWS V14.01,2013-03-24 05:15:00,
2013-03-23 22:20:00,48.4,35.2,30.16,SE,134,0.0,0.0,60,0.00,,,0.00,VWS V14.01,2013-03-24 05:20:00,
2013-03-23 22:25:00,48.5,35.3,30.16,SE,134,0.0,0.0,60,0.00,,,0.00,VWS V14.01,2013-03-24 05:25:00,
2013-03-23 22:30:00,48.5,34.8,30.16,SE,128,0.0,0.0,59,0.00,,,0.00,VWS V14.01,2013-03-24 05:30:00,
2013-03-23 22:35:00,48.6,34.9,30.16,SE,124,0.0,1.0,59,0.00,,,0.00,VWS V14.01,2013-03-24 05:35:00,
2013-03-23 22:40:00,48.6,34.9,30.16,ESE,120,0.0,1.0,59,0.00,,,0.00,VWS V14.01,2013-03-24 05:40:00,
2013-03-23 22:45:00,48.4,34.8,30.15,ESE,122,0.0,1.0,59,0.00,,,0.00,VWS V14.01,2013-03-24 05:45:00,
2013-03-23 22:50:00,48.0,34.8,30.15,ESE,121,0.0,1.0,60,0.00,,,0.00,VWS V14.01,2013-03-24 05:50:00,
2013-03-23 22:55:00,47.7,34.9,30.15,ESE,121,0.0,1.0,61,0.00,,,0.00,VWS V14.01,2013-03-24 05:55:00,
2013-03-23 23:00:00,47.5,34.3,30.15,ESE,122,0.0,1.0,60,0.00,,,0.00,VWS V14.01,2013-03-24 06:00:00,
2013-03-23 23:05:00,47.5,34.3,30.15,NW,309,0.0,1.0,60,0.00,,,0.00,VWS V14.01,2013-03-24 06:05:00,
2013-03-23 23:10:00,47.5,34.7,30.15,NW,309,0.0,1.0,61,0.00,,,0.00,VWS V14.01,2013-03-24 06:10:00,
2013-03-23 23:15:00,47.1,34.4,30.15,NW,309,0.0,1.0,61,0.00,,,0.00,VWS V14.01,2013-03-24 06:15:00,
2013-03-23 23:20:00,46.9,35.0,30.15,NW,309,0.0,1.0,63,0.00,,,0.00,VWS V14.01,2013-03-24 06:20:00,
2013-03-23 23:25:00,46.5,34.6,30.15,NW,309,0.0,1.0,63,0.00,,,0.00,VWS V14.01,2013-03-24 06:25:00,
2013-03-23 23:30:00,46.2,34.7,30.15,NW,309,0.0,0.0,64,0.00,,,0.00,VWS V14.01,2013-03-24 06:30:00,
2013-03-23 23:35:00,45.9,34.4,30.15,NW,309,0.0,0.0,64,0.00,,,0.00,VWS V14.01,2013-03-24 06:35:00,
2013-03-23 23:40:00,45.4,34.0,30.15,NW,309,0.0,0.0,64,0.00,,,0.00,VWS V14.01,2013-03-24 06:40:00,
2013-03-23 23:45:00,45.0,34.0,30.15,NW,309,0.0,0.0,65,0.00,,,0.00,VWS V14.01,2013-03-24 06:45:00,
2013-03-23 23:50:00,45.1,33.7,30.15,NW,309,0.0,0.0,64,0.00,,,0.00,VWS V14.01,2013-03-24 06:50:00,
2013-03-23 23:55:00,45.2,33.8,30.15,NW,309,0.0,0.0,64,0.00,,,0.00,VWS V14.01,2013-03-24 06:55:00,